CW6401 Weather Reports


Display with metric or nautical units.
time (UTC)temp
F
wind
direction
speed
MPH
gust
MPH
rain 1hr
in
rain 24hr
in
rain mn
in
humidity
%
barometer
mb
20260504140852 57 186 2.0 3.0 0.00 0.00 0.00 59 1008.8
20260504140348 57 167 2.0 3.0 0.00 0.00 0.00 59 1008.8
20260504130817 53 203 2.0 6.0 0.00 0.00 0.00 60 1009.0
20260504130313 53 168 6.0 8.0 0.00 0.00 0.00 59 1009.2
20260504120237 50 191 0.0 5.0 0.00 0.00 0.00 63 1009.3
20260504110704 48 190 2.0 3.0 0.00 0.00 0.00 66 1008.9
20260504110201 47 190 2.0 2.0 0.00 0.00 0.00 67 1008.9
20260504100124 46 237 2.0 3.0 0.00 0.00 0.00 68 1008.9
20260504081518 47 165 0.0 5.0 0.00 0.00 0.00 66 1009.8
20260504081013 47 225 1.0 2.0 0.00 0.00 0.00 66 1010.0
20260504080509 47 179 0.0 3.0 0.00 0.00 0.00 66 1010.0
20260504050322 47 187 0.0 0.0 0.00 0.00 0.00 62 1011.6
20260504045820 47 179 0.0 0.0 0.00 0.00 0.00 62 1011.8
20260504045319 47 163 1.0 2.0 0.00 0.00 0.00 62 1011.7
20260504044817 47 174 0.0 0.0 0.00 0.00 0.00 61 1011.6
20260504044314 48 179 0.0 2.0 0.00 0.00 0.00 62 1011.7
20260504043812 48 188 1.0 2.0 0.00 0.00 0.00 59 1011.7
20260504043308 48 198 0.0 2.0 0.00 0.00 0.00 58 1011.9
20260504042806 48 241 2.0 3.0 0.00 0.00 0.00 59 1011.8
20260504042304 48 194 1.0 3.0 0.00 0.00 0.00 58 1011.8
20260504041759 48 197 2.0 3.0 0.00 0.00 0.00 57 1011.7
20260504041255 49 208 3.0 6.0 0.00 0.00 0.00 57 1011.9
20260504040751 48 210 2.0 8.0 0.00 0.00 0.00 57 1011.8
20260504040249 48 216 2.0 3.0 0.00 0.00 0.00 60 1011.8
20260504035744 48 201 2.0 5.0 0.00 0.00 0.00 60 1011.5
20260504035242 48 193 1.0 3.0 0.00 0.00 0.00 60 1011.5
20260504034739 48 199 1.0 3.0 0.00 0.00 0.00 59 1011.6
20260504034236 48 185 1.0 2.0 0.00 0.00 0.00 61 1011.7
20260504033734 48 190 0.0 2.0 0.00 0.00 0.00 60 1011.8
20260504033231 48 197 1.0 3.0 0.00 0.00 0.00 59 1011.7
20260504032728 48 193 1.0 2.0 0.00 0.00 0.00 59 1011.7
20260504032225 49 193 1.0 2.0 0.00 0.00 0.00 59 1011.9
20260504031721 49 196 2.0 2.0 0.00 0.00 0.00 58 1011.8
20260504031219 49 185 0.0 2.0 0.00 0.00 0.00 59 1011.8
20260504030715 49 198 1.0 3.0 0.00 0.00 0.00 58 1011.9
20260504030212 49 188 2.0 3.0 0.00 0.00 0.00 59 1011.8
20260504025709 49 194 1.0 3.0 0.00 0.00 0.00 59 1011.9
20260504025205 49 204 2.0 3.0 0.00 0.00 0.00 57 1011.8
20260504024703 49 189 1.0 2.0 0.00 0.00 0.00 58 1012.0
20260504024159 49 187 2.0 2.0 0.00 0.00 0.00 58 1012.1
20260504023656 49 194 2.0 3.0 0.00 0.00 0.00 59 1012.0
20260504023152 50 200 2.0 2.0 0.00 0.00 0.00 58 1011.9
20260504022648 50 193 0.0 2.0 0.00 0.00 0.00 57 1011.9
20260504022144 50 192 0.0 2.0 0.00 0.00 0.00 57 1012.0
20260504021642 50 210 2.0 3.0 0.00 0.00 0.00 57 1011.9
20260504021138 50 176 1.0 3.0 0.00 0.00 0.00 56 1011.9
20260504020636 51 192 1.0 3.0 0.00 0.00 0.00 55 1012.0
20260504020131 51 208 3.0 5.0 0.00 0.00 0.00 55 1011.9
20260504015628 51 198 2.0 2.0 0.00 0.00 0.00 55 1011.9
20260504015125 51 233 1.0 3.0 0.00 0.00 0.00 56 1011.9
20260504014621 51 185 1.0 2.0 0.00 0.00 0.00 55 1011.7
20260504014118 51 193 0.0 3.0 0.00 0.00 0.00 54 1011.7
20260504013615 51 197 1.0 2.0 0.00 0.00 0.00 52 1011.8
20260504013112 51 198 2.0 3.0 0.00 0.00 0.00 52 1011.8
20260504012610 52 208 3.0 3.0 0.00 0.00 0.00 52 1011.6
20260504012107 52 203 2.0 3.0 0.00 0.00 0.00 52 1011.7
20260504011604 52 190 1.0 5.0 0.00 0.00 0.00 52 1011.7
20260504011100 52 191 0.0 2.0 0.00 0.00 0.00 52 1011.7
20260504010556 52 186 1.0 3.0 0.00 0.00 0.00 51 1011.6
20260504010052 53 181 2.0 3.0 0.00 0.00 0.00 52 1011.8
20260504005549 53 198 3.0 5.0 0.00 0.00 0.00 50 1011.8
20260504005046 53 194 0.0 5.0 0.00 0.00 0.00 51 1011.7
20260504004544 53 182 0.0 5.0 0.00 0.00 0.00 51 1011.7
20260504004041 53 188 1.0 5.0 0.00 0.00 0.00 50 1011.7
20260504003537 53 198 2.0 3.0 0.00 0.00 0.00 51 1011.5
20260504003034 53 198 2.0 3.0 0.00 0.00 0.00 50 1011.6
20260504002531 53 192 1.0 3.0 0.00 0.00 0.00 48 1011.6
20260504002028 54 203 2.0 3.0 0.00 0.00 0.00 50 1011.7
20260504001526 54 175 0.0 3.0 0.00 0.00 0.00 48 1011.8
20260504001022 54 202 3.0 5.0 0.00 0.00 0.00 49 1011.6
20260504000519 54 186 1.0 3.0 0.00 0.00 0.00 49 1011.7
20260504000017 54 202 2.0 5.0 0.00 0.00 0.00 47 1011.6
20260503235515 54 184 1.0 8.0 0.00 0.00 0.00 46 1011.7
20260503235011 55 201 4.0 8.0 0.00 0.00 0.00 47 1011.6
20260503234509 55 214 3.0 5.0 0.00 0.00 0.00 46 1011.8
20260503234007 55 205 4.0 5.0 0.00 0.00 0.00 49 1011.7
20260503233503 55 216 2.0 5.0 0.00 0.00 0.00 46 1011.7
20260503232959 55 274 2.0 5.0 0.00 0.00 0.00 45 1011.6
20260503232456 55 198 4.0 6.0 0.00 0.00 0.00 47 1011.6
20260503231954 55 195 5.0 6.0 0.00 0.00 0.00 45 1011.6
20260503231451 55 197 1.0 3.0 0.00 0.00 0.00 46 1011.6
20260503230948 55 241 3.0 5.0 0.00 0.00 0.00 45 1011.7
20260503230444 55 190 4.0 6.0 0.00 0.00 0.00 45 1011.6
20260503225942 55 191 4.0 9.0 0.00 0.00 0.00 44 1011.7
20260503225439 56 230 6.0 9.0 0.00 0.00 0.00 43 1011.8
20260503224934 56 244 2.0 3.0 0.00 0.00 0.00 46 1011.8
20260503224431 56 150 0.0 5.0 0.00 0.00 0.00 45 1011.7
20260503223929 56 185 3.0 6.0 0.00 0.00 0.00 45 1011.8
20260503223427 56 200 3.0 5.0 0.00 0.00 0.00 45 1011.8
20260503222922 56 198 2.0 8.0 0.00 0.00 0.00 43 1011.7
20260503222421 56 173 1.0 6.0 0.00 0.00 0.00 43 1011.7
20260503221919 56 169 2.0 8.0 0.00 0.00 0.00 42 1011.8
20260503221417 57 289 2.0 5.0 0.00 0.00 0.00 45 1011.8
20260503220913 57 182 3.0 5.0 0.00 0.00 0.00 44 1011.6
20260503220410 58 156 1.0 6.0 0.00 0.00 0.00 42 1011.6
20260503215907 57 199 4.0 6.0 0.00 0.00 0.00 41 1011.5
20260503215404 57 222 4.0 6.0 0.00 0.00 0.00 42 1011.6
20260503214901 58 220 3.0 5.0 0.00 0.00 0.00 42 1011.7
20260503214359 58 235 4.0 8.0 0.00 0.00 0.00 40 1011.4
20260503213856 57 214 1.0 5.0 0.00 0.00 0.00 43 1011.6
20260503213354 58 320 5.0 9.0 0.00 0.00 0.00 40 1011.7
20260503212850 57 206 2.0 3.0 0.00 0.00 0.00 43 1011.4
20260503212348 58 326 2.0 5.0 0.00 0.00 0.00 42 1011.5
20260503211845 58 215 4.0 6.0 0.00 0.00 0.00 41 1011.3
20260503211342 57 202 2.0 5.0 0.00 0.00 0.00 42 1011.4
20260503210837 57 207 4.0 9.0 0.00 0.00 0.00 40 1011.4
20260503210334 58 219 2.0 3.0 0.00 0.00 0.00 40 1011.5
20260503205829 59 206 6.0 14.0 0.00 0.00 0.00 39 1011.4
20260503205326 58 139 3.0 8.0 0.00 0.00 0.00 42 1011.4
20260503204822 57 203 2.0 3.0 0.00 0.00 0.00 42 1011.6
20260503204320 58 302 2.0 6.0 0.00 0.00 0.00 41 1011.5
20260503203817 57 291 4.0 8.0 0.00 0.00 0.00 43 1011.6
20260503203315 57 208 2.0 6.0 0.00 0.00 0.00 44 1011.8
20260503202811 57 245 2.0 5.0 0.00 0.00 0.00 45 1011.9
20260503202309 58 214 4.0 5.0 0.00 0.00 0.00 44 1011.9
20260503201807 57 204 6.0 8.0 0.00 0.00 0.00 45 1012.1
20260503201304 58 210 2.0 6.0 0.00 0.00 0.00 44 1012.1
20260503200801 60 162 2.0 3.0 0.00 0.00 0.00 39 1012.3
20260503200257 59 197 3.0 6.0 0.00 0.00 0.00 41 1012.4
20260503195755 58 200 2.0 6.0 0.00 0.00 0.00 41 1012.5
20260503195251 58 229 2.0 5.0 0.00 0.00 0.00 44 1012.4
20260503194749 60 205 2.0 5.0 0.00 0.00 0.00 43 1012.6
20260503194244 60 202 2.0 6.0 0.00 0.00 0.00 44 1012.6
20260503193741 58 194 4.0 5.0 0.00 0.00 0.00 43 1012.6
20260503193237 59 242 3.0 9.0 0.00 0.00 0.00 39 1012.6
20260503192732 57 222 3.0 8.0 0.00 0.00 0.00 42 1012.8
20260503192228 56 247 3.0 5.0 0.00 0.00 0.00 45 1012.8
20260503191725 57 200 3.0 11.0 0.00 0.00 0.00 42 1012.9
20260503191222 56 201 4.0 9.0 0.00 0.00 0.00 43 1013.0
20260503190719 56 312 2.0 8.0 0.00 0.00 0.00 43 1013.0
20260503190215 58 241 2.0 5.0 0.00 0.00 0.00 44 1013.0
20260503185713 58 235 6.0 11.0 0.00 0.00 0.00 41 1013.1
20260503185208 57 203 4.0 9.0 0.00 0.00 0.00 43 1013.2
20260503184703 57 209 4.0 5.0 0.00 0.00 0.00 43 1013.3
20260503184200 57 341 7.0 9.0 0.00 0.00 0.00 43 1013.5
20260503183656 56 213 2.0 11.0 0.00 0.00 0.00 44 1013.4
20260503183153 56 231 6.0 9.0 0.00 0.00 0.00 44 1013.4
20260503182651 54 215 7.0 11.0 0.00 0.00 0.00 45 1013.5
20260503182150 55 232 2.0 5.0 0.00 0.00 0.00 45 1013.4
20260503181646 55 218 2.0 6.0 0.00 0.00 0.00 45 1013.7
20260503181143 56 261 3.0 5.0 0.00 0.00 0.00 46 1013.6
20260503180640 55 159 2.0 5.0 0.00 0.00 0.00 45 1013.6
20260503180138 56 173 4.0 6.0 0.00 0.00 0.00 42 1013.8
20260503175634 55 188 3.0 9.0 0.00 0.00 0.00 43 1013.8
20260503175132 55 53 7.0 11.0 0.00 0.00 0.00 43 1013.7
20260503174628 54 206 4.0 6.0 0.00 0.00 0.00 45 1013.9
20260503174125 54 222 6.0 11.0 0.00 0.00 0.00 46 1013.9
20260503173620 55 221 5.0 8.0 0.00 0.00 0.00 44 1013.9
20260503173117 55 268 2.0 8.0 0.00 0.00 0.00 44 1014.0
20260503172614 56 219 6.0 11.0 0.00 0.00 0.00 44 1014.0
20260503172111 56 277 3.0 9.0 0.00 0.00 0.00 44 1014.0
20260503171608 55 233 4.0 6.0 0.00 0.00 0.00 44 1014.1
20260503171105 56 202 6.0 9.0 0.00 0.00 0.00 40 1014.2
20260503170556 55 200 3.0 6.0 0.00 0.00 0.00 41 1014.3
20260503150948 50 221 6.0 8.0 0.00 0.00 0.00 45 1015.3
20260503150444 50 105 7.0 8.0 0.00 0.00 0.00 46 1015.3